Weather History for Taylorville, IL

Change the Weather History Date:

Wednesday, August 20, 2014

  Actual Average (KSPI) Record (KSPI)
Temperature  
Mean Temperature 71 °F 74 °F  
Max Temperature 78 °F 85 °F 101 °F (1983)
Min Temperature 64 °F 63 °F 46 °F (1950)
Degree Days  
Heating Degree Days 0 0  
Month to date heating degree days 0  
Since 1 June heating degree days 16  
Since 1 July heating degree days 1  
Cooling Degree Days 6 9  
Month to date cooling degree days 197  
Year to date cooling degree days 876  
Since 1 June cooling degree days 772  
Growing Degree Days 21 (Base 50)    
Moisture  
Dew Point 68 °F    
Average Humidity 93    
Maximum Humidity 100    
Minimum Humidity 78    
Precipitation  
Precipitation 0.00 in 0.10 in 3.65 in (1915)
Month to date precipitation 2.12  
Year to date precipitation 24.53  
Snow  
Snow 0.00 in 0.00 in 0.00 in ()
Month to date snowfall 0.0  
Since 1 June snowfall 0.0  
Since 1 July snowfall 0.0  
Snow Depth -    
Sea Level Pressure  
Sea Level Pressure 29.93 in    
Wind  
Wind Speed 3 mph (South)    
Max Wind Speed 31 mph    
Max Gust Speed 45 mph    
Visibility 8 miles    
Events Fog , Rain , Thunderstorm    
T = Trace of Precipitation, MM = Missing Value Source: NWS Daily Summary

Daily Weather History Graph

Daily Weather History Graph

Search for Another Location

Airport:

Trip Planner

Search our weather history database for the weather conditions in past years. The results will help you decide how hot, cold, wet, or windy it might be!

Date:

Astronomy

Aug. 20, 2014 Rise Set
Actual Time 6:14 AM CDT 7:46 PM CDT
Civil Twilight 5:46 AM CDT 8:14 PM CDT
Nautical Twilight 5:11 AM CDT 8:48 PM CDT
Astronomical Twilight 4:35 AM CDT 9:24 PM CDT
Moon 1:54 AM CDT (8/20) 4:30 PM CDT (8/20)
Length of Visible Light 14h 28m
Length of Day
13h 31m
Waning Crescent, 20% of the Moon is Illuminated
Aug 20
Waning Crescent
Aug 25
New
Sep 2
First Quarter
Sep 8
Full
Sep 15
Last Quarter

Hourly Weather History & Observations

Time (CDT) Temp. Dew Point Humidity Pressure Visibility Wind Dir Wind Speed Gust Speed Precip Events Conditions
12:15 AM 68.0 °F 68.0 °F 100% 29.85 in 7.0 mi Calm Calm - N/A   Clear
12:35 AM 69.8 °F 68.0 °F 94% 29.85 in 10.0 mi Calm Calm - N/A   Clear
12:55 AM 66.2 °F 66.2 °F 100% 29.84 in 5.0 mi Calm Calm - N/A   Clear
1:15 AM 68.0 °F 68.0 °F 100% 29.84 in 5.0 mi Calm Calm - N/A   Clear
1:35 AM 68.0 °F 68.0 °F 100% 29.84 in 10.0 mi Calm Calm - N/A   Clear
1:55 AM 68.0 °F 68.0 °F 100% 29.83 in 0.5 mi Calm Calm - N/A Fog Fog
2:15 AM 68.0 °F 66.2 °F 94% 29.83 in 10.0 mi Calm Calm - N/A   Clear
2:35 AM 64.4 °F 64.4 °F 100% 29.83 in 0.8 mi Calm Calm - N/A   Mostly Cloudy
2:55 AM 66.2 °F 64.4 °F 94% 29.84 in 4.0 mi SSW 4.6 mph - N/A   Scattered Clouds
3:15 AM 64.4 °F 64.4 °F 100% 29.84 in 2.0 mi Calm Calm - N/A   Scattered Clouds
3:35 AM 66.2 °F 64.4 °F 94% 29.85 in 7.0 mi Calm Calm - N/A   Clear
3:55 AM 64.4 °F 64.4 °F 100% 29.85 in 10.0 mi Calm Calm - N/A   Clear
4:15 AM 66.2 °F 64.4 °F 94% 29.85 in 4.0 mi Calm Calm - N/A   Clear
4:35 AM 64.4 °F 64.4 °F 100% 29.86 in 5.0 mi South 3.5 mph - N/A   Clear
4:55 AM 64.4 °F 64.4 °F 100% 29.88 in 3.0 mi Calm Calm - N/A   Mostly Cloudy
5:15 AM 64.4 °F 64.4 °F 100% 29.88 in 3.0 mi SSW 4.6 mph - N/A   Overcast
5:35 AM 66.2 °F 66.2 °F 100% 29.87 in 3.0 mi Calm Calm - N/A   Mostly Cloudy
5:55 AM 68.0 °F 68.0 °F 100% 29.88 in 5.0 mi Calm Calm - N/A Thunderstorm Mostly Cloudy
6:15 AM 66.2 °F 66.2 °F 100% 29.87 in 2.0 mi ESE 6.9 mph - N/A Rain Heavy Rain
6:35 AM 68.0 °F 68.0 °F 100% 29.88 in 4.0 mi South 3.5 mph - N/A   Mostly Cloudy
6:55 AM 68.0 °F 68.0 °F 100% 29.88 in 3.0 mi Calm Calm - N/A Thunderstorm Scattered Clouds
7:15 AM 69.8 °F 69.8 °F 100% 29.91 in 4.0 mi Calm Calm - N/A Thunderstorm Scattered Clouds
7:35 AM 71.6 °F 69.8 °F 94% 29.91 in 7.0 mi SW 3.5 mph - N/A   Scattered Clouds
7:55 AM 71.6 °F 71.6 °F 100% 29.91 in 10.0 mi Calm Calm - N/A   Scattered Clouds
8:15 AM 73.4 °F 71.6 °F 94% 29.91 in 10.0 mi Calm Calm - N/A   Clear
8:35 AM 71.6 °F 71.6 °F 100% 29.92 in 10.0 mi South 4.6 mph - N/A Thunderstorm Clear
8:55 AM 71.6 °F 69.8 °F 94% 29.90 in 10.0 mi South 8.1 mph - N/A Thunderstorm Scattered Clouds
9:15 AM 69.8 °F 68.0 °F 94% 29.92 in 2.0 mi SW 4.6 mph - N/A Rain , Thunderstorm Light Thunderstorms and Rain
9:35 AM 69.8 °F 68.0 °F 94% 29.97 in 10.0 mi NW 16.1 mph 23.0 mph N/A Rain , Thunderstorm Light Thunderstorms and Rain
9:55 AM 68.0 °F 64.4 °F 88% 29.97 in 2.0 mi North 4.6 mph - N/A Rain , Thunderstorm Thunderstorms and Rain
10:15 AM 68.0 °F 64.4 °F 88% 29.96 in 10.0 mi Calm Calm - N/A Rain , Thunderstorm Light Thunderstorms and Rain
10:35 AM 68.0 °F 66.2 °F 94% 29.96 in 7.0 mi SE 5.8 mph - N/A Rain , Thunderstorm Rain
10:55 AM 68.0 °F 66.2 °F 94% 30.05 in 5.0 mi WNW 31.1 mph 44.9 mph N/A Rain , Thunderstorm Heavy Thunderstorms and Rain
11:15 AM 66.2 °F 64.4 °F 94% 30.04 in 2.5 mi NW 9.2 mph - N/A Rain , Thunderstorm Heavy Thunderstorms and Rain
11:35 AM 66.2 °F 64.4 °F 94% 30.01 in 3.0 mi NE 4.6 mph - N/A Rain , Thunderstorm Thunderstorms and Rain
11:55 AM 66.2 °F 64.4 °F 94% 29.99 in 1.2 mi SSE 11.5 mph - N/A Rain , Thunderstorm Heavy Thunderstorms and Rain
12:15 PM 66.2 °F 64.4 °F 94% 29.97 in 10.0 mi SE 5.8 mph - N/A Rain , Thunderstorm Light Thunderstorms and Rain
12:35 PM 68.0 °F 66.2 °F 94% 29.97 in 10.0 mi SE 5.8 mph - N/A Thunderstorm Unknown
12:55 PM 68.0 °F 66.2 °F 94% 29.99 in 4.0 mi SSE 4.6 mph - N/A Rain Rain
1:15 PM 68.0 °F 68.0 °F 100% 30.03 in 10.0 mi West 4.6 mph - N/A Thunderstorm Thunderstorm
1:35 PM 68.0 °F 68.0 °F 100% 29.96 in 7.0 mi ESE 8.1 mph - N/A Rain Light Rain
1:55 PM 69.8 °F 68.0 °F 94% 29.98 in 10.0 mi SSW 6.9 mph - N/A Thunderstorm Scattered Clouds
2:15 PM 69.8 °F 68.0 °F 94% 29.97 in 10.0 mi South 4.6 mph - N/A   Clear
2:35 PM 71.6 °F 69.8 °F 94% 29.97 in 10.0 mi SSE 3.5 mph - N/A   Clear
2:55 PM 73.4 °F 69.8 °F 88% 29.97 in 10.0 mi South 3.5 mph - N/A   Clear
3:15 PM 73.4 °F 69.8 °F 88% 29.97 in 10.0 mi South 4.6 mph - N/A   Clear
3:35 PM 77.0 °F 71.6 °F 83% 29.96 in 10.0 mi South 6.9 mph - N/A   Clear
3:55 PM 77.0 °F 71.6 °F 83% 29.95 in 10.0 mi SSE 6.9 mph - N/A   Clear
4:15 PM 77.0 °F 71.6 °F 83% 29.96 in 10.0 mi South 8.1 mph - N/A   Clear
4:35 PM 78.8 °F 71.6 °F 78% 29.95 in 10.0 mi SSW 8.1 mph - N/A   Clear
4:55 PM 78.8 °F 71.6 °F 78% 29.95 in 10.0 mi SSW 5.8 mph - N/A   Clear
5:15 PM 78.8 °F 71.6 °F 78% 29.95 in 10.0 mi SSW 5.8 mph - N/A   Clear
5:35 PM 78.8 °F 71.6 °F 78% 29.95 in 10.0 mi South 9.2 mph - N/A   Clear
5:55 PM 78.8 °F 71.6 °F 78% 29.95 in 10.0 mi South 5.8 mph - N/A   Clear
6:15 PM 77.0 °F 71.6 °F 83% 29.95 in 10.0 mi South 6.9 mph - N/A   Clear
6:35 PM 77.0 °F 69.8 °F 78% 29.94 in 10.0 mi South 6.9 mph - N/A   Clear
6:55 PM 75.2 °F 69.8 °F 83% 29.93 in 10.0 mi South 5.8 mph - N/A   Clear
7:15 PM 73.4 °F 69.8 °F 88% 29.92 in 10.0 mi South 5.8 mph - N/A   Clear
7:35 PM 73.4 °F 69.8 °F 88% 29.93 in 10.0 mi SSE 3.5 mph - N/A   Clear
7:55 PM 71.6 °F 69.8 °F 94% 29.93 in 10.0 mi SSE 4.6 mph - N/A   Clear
8:15 PM 71.6 °F 69.8 °F 94% 29.94 in 10.0 mi Calm Calm - N/A   Clear
8:35 PM 69.8 °F 69.8 °F 100% 29.96 in 10.0 mi SSE 4.6 mph - N/A   Clear
8:55 PM 71.6 °F 69.8 °F 94% 29.97 in 10.0 mi SSE 3.5 mph - N/A   Clear
9:15 PM 69.8 °F 69.8 °F 100% 29.97 in 10.0 mi SSE 5.8 mph - N/A   Clear
9:35 PM 69.8 °F 69.8 °F 100% 29.97 in 10.0 mi SSE 3.5 mph - N/A   Clear
9:55 PM 69.8 °F 68.0 °F 94% 29.97 in 10.0 mi South 5.8 mph - N/A   Scattered Clouds
10:15 PM 69.8 °F 69.8 °F 100% 29.99 in 10.0 mi SSW 6.9 mph - N/A   Clear
10:35 PM 71.6 °F 69.8 °F 94% 29.98 in 10.0 mi South 8.1 mph - N/A   Clear
10:55 PM 71.6 °F 69.8 °F 94% 29.99 in 10.0 mi South 10.4 mph - N/A   Clear
11:15 PM 71.6 °F 69.8 °F 94% 29.97 in 10.0 mi South 9.2 mph - N/A   Clear
11:35 PM 71.6 °F 69.8 °F 94% 29.96 in 10.0 mi South 8.1 mph - N/A   Clear
11:55 PM 71.6 °F 69.8 °F 94% 29.96 in 10.0 mi South 9.2 mph - N/A   Scattered Clouds